Time,TemperatureF,DewpointF,PressureIn,WindDirection,WindDirectionDegrees,WindSpeedMPH,WindSpeedGustMPH,Humidity,HourlyPrecipIn,Conditions,Clouds,dailyrainin,SolarRadiationWatts/m^2,SoftwareType,DateUTC
2013-05-16 00:02:00,58.0,48.0,-100.00,WSW,241,0.0,2.0,69,0.00,,,0.00,0.000000,,2013-05-16 04:02:00,
2013-05-16 00:23:00,55.0,48.0,-100.00,SSE,162,1.0,3.0,76,0.00,,,0.00,0.000000,,2013-05-16 04:23:00,
2013-05-16 00:33:00,55.0,48.0,-100.00,SSE,162,1.0,3.0,76,0.00,,,0.00,0.000000,,2013-05-16 04:33:00,
2013-05-16 00:42:00,55.0,48.0,-100.00,SSE,162,1.0,3.0,76,0.00,,,0.00,0.000000,,2013-05-16 04:42:00,
2013-05-16 00:53:00,55.0,48.0,-100.00,SSE,162,1.0,3.0,76,0.00,,,0.00,0.000000,,2013-05-16 04:53:00,
2013-05-16 01:02:00,55.0,48.0,-100.00,SSE,162,1.0,3.0,76,0.00,,,0.00,0.000000,,2013-05-16 05:02:00,
2013-05-16 01:32:00,54.0,47.0,-100.00,WSW,252,2.0,5.0,78,0.00,,,-99.99,0.000000,,2013-05-16 05:32:00,
2013-05-16 01:42:00,54.0,47.0,-100.00,WSW,252,2.0,5.0,78,0.00,,,-99.99,0.000000,,2013-05-16 05:42:00,
2013-05-16 01:52:00,54.0,47.0,-100.00,WSW,252,2.0,5.0,78,0.00,,,-99.99,0.000000,,2013-05-16 05:52:00,
2013-05-16 02:02:00,54.0,47.0,-100.00,WSW,252,2.0,5.0,78,0.00,,,-99.99,0.000000,,2013-05-16 06:02:00,
2013-05-16 02:23:00,55.0,48.0,-100.00,WSW,239,2.0,5.0,78,0.00,,,0.00,0.000000,,2013-05-16 06:23:00,
2013-05-16 02:33:00,55.0,48.0,-100.00,WSW,239,2.0,5.0,78,0.00,,,0.00,0.000000,,2013-05-16 06:33:00,
2013-05-16 02:43:00,55.0,48.0,-100.00,WSW,239,2.0,5.0,78,0.00,,,0.00,0.000000,,2013-05-16 06:43:00,
2013-05-16 02:53:00,55.0,48.0,-100.00,WSW,239,2.0,5.0,78,0.00,,,0.00,0.000000,,2013-05-16 06:53:00,
2013-05-16 03:02:00,55.0,48.0,-100.00,WSW,239,2.0,5.0,78,0.00,,,0.00,0.000000,,2013-05-16 07:02:00,
2013-05-16 03:24:00,53.0,47.0,-100.00,SW,220,2.0,4.0,81,0.00,,,0.00,0.000000,,2013-05-16 07:24:00,
2013-05-16 03:34:00,53.0,47.0,-100.00,SW,220,2.0,4.0,81,0.00,,,0.00,0.000000,,2013-05-16 07:34:00,
2013-05-16 03:44:00,53.0,47.0,-100.00,SW,220,2.0,4.0,81,0.00,,,0.00,0.000000,,2013-05-16 07:44:00,
2013-05-16 03:54:00,53.0,47.0,-100.00,SW,220,2.0,4.0,81,0.00,,,0.00,0.000000,,2013-05-16 07:54:00,
2013-05-16 04:03:00,53.0,47.0,-100.00,SW,220,2.0,4.0,81,0.00,,,0.00,0.000000,,2013-05-16 08:03:00,
2013-05-16 04:04:00,53.0,48.0,-100.00,NE,44,2.0,5.0,83,0.00,,,0.00,0.000000,,2013-05-16 08:04:00,
2013-05-16 04:35:00,53.0,48.0,-100.00,NE,44,2.0,5.0,83,0.00,,,0.00,0.000000,,2013-05-16 08:35:00,
2013-05-16 04:45:00,53.0,48.0,-100.00,NE,44,2.0,5.0,83,0.00,,,0.00,0.000000,,2013-05-16 08:45:00,
2013-05-16 04:55:00,53.0,48.0,-100.00,NE,44,2.0,5.0,83,0.00,,,0.00,0.000000,,2013-05-16 08:55:00,
2013-05-16 05:04:00,52.0,47.0,-100.00,WSW,257,1.0,6.0,82,0.00,,,0.00,0.000000,,2013-05-16 09:04:00,
2013-05-16 05:24:00,52.0,47.0,-100.00,WSW,257,1.0,6.0,82,0.00,,,0.00,0.000000,,2013-05-16 09:24:00,
2013-05-16 05:35:00,52.0,47.0,-100.00,WSW,257,1.0,6.0,82,0.00,,,0.00,0.000000,,2013-05-16 09:35:00,
2013-05-16 05:45:00,52.0,47.0,-100.00,WSW,257,1.0,6.0,82,0.00,,,0.00,0.000000,,2013-05-16 09:45:00,
2013-05-16 05:55:00,52.0,47.0,-100.00,WSW,257,1.0,6.0,82,0.00,,,0.00,0.000000,,2013-05-16 09:55:00,
2013-05-16 06:04:00,50.0,46.0,-100.00,WSW,246,1.0,4.0,86,0.00,,,-99.99,0.000000,,2013-05-16 10:04:00,
2013-05-16 06:24:00,50.0,46.0,-100.00,WSW,246,1.0,4.0,86,0.00,,,-99.99,0.000000,,2013-05-16 10:24:00,
2013-05-16 06:36:00,50.0,46.0,-100.00,WSW,246,1.0,4.0,86,0.00,,,-99.99,0.000000,,2013-05-16 10:36:00,
2013-05-16 06:45:00,50.0,46.0,-100.00,WSW,246,1.0,4.0,86,0.00,,,-99.99,0.000000,,2013-05-16 10:45:00,
2013-05-16 06:56:00,50.0,46.0,-100.00,WSW,246,1.0,4.0,86,0.00,,,-99.99,0.000000,,2013-05-16 10:56:00,
2013-05-16 07:04:00,51.0,47.0,-100.00,SSE,162,2.0,6.0,85,0.00,,,0.00,13.000000,,2013-05-16 11:04:00,
2013-05-16 07:35:00,51.0,47.0,-100.00,SSE,162,2.0,6.0,85,0.00,,,0.00,13.000000,,2013-05-16 11:35:00,
2013-05-16 07:46:00,51.0,47.0,-100.00,SSE,162,2.0,6.0,85,0.00,,,0.00,13.000000,,2013-05-16 11:46:00,
2013-05-16 07:57:00,51.0,47.0,-100.00,SSE,162,2.0,6.0,85,0.00,,,0.00,13.000000,,2013-05-16 11:57:00,
2013-05-16 08:04:00,56.0,49.0,-100.00,West,272,2.0,7.0,76,0.00,,,0.00,78.000000,,2013-05-16 12:04:00,
2013-05-16 08:23:00,56.0,49.0,-100.00,West,272,2.0,7.0,76,0.00,,,0.00,78.000000,,2013-05-16 12:23:00,
2013-05-16 08:35:00,56.0,49.0,-100.00,West,272,2.0,7.0,76,0.00,,,0.00,78.000000,,2013-05-16 12:35:00,
2013-05-16 08:45:00,56.0,49.0,-100.00,West,272,2.0,7.0,76,0.00,,,0.00,78.000000,,2013-05-16 12:45:00,
2013-05-16 08:53:00,56.0,49.0,-100.00,West,272,2.0,7.0,76,0.00,,,0.00,78.000000,,2013-05-16 12:53:00,
2013-05-16 09:35:00,69.0,51.0,-100.00,WSW,252,2.0,5.0,52,0.00,,,-99.99,285.000000,,2013-05-16 13:35:00,
2013-05-16 10:04:00,72.0,45.0,-100.00,SSW,210,2.0,7.0,38,-99.99,,,0.00,315.000000,,2013-05-16 14:04:00,
2013-05-16 10:37:00,72.0,45.0,-100.00,SSW,210,2.0,7.0,38,-99.99,,,0.00,315.000000,,2013-05-16 14:37:00,
2013-05-16 11:28:00,73.0,41.0,-100.00,WSW,245,3.0,9.0,31,0.00,,,0.00,397.000000,,2013-05-16 15:28:00,
2013-05-16 11:40:00,73.0,41.0,-100.00,WSW,245,3.0,9.0,31,0.00,,,0.00,397.000000,,2013-05-16 15:40:00,
2013-05-16 12:30:00,76.0,39.0,-100.00,West,266,3.0,7.0,26,0.00,,,0.00,469.000000,,2013-05-16 16:30:00,
2013-05-16 12:40:00,76.0,-99.9,-100.00,West,266,3.0,7.0,26,0.00,,,0.00,469.000000,,2013-05-16 16:40:00,
2013-05-16 13:40:00,76.0,37.0,-100.00,South,172,5.0,10.0,24,0.00,,,-99.99,468.000000,,2013-05-16 17:40:00,
2013-05-16 13:51:00,-999.0,-99.9,-100.00,South,172,5.0,10.0,24,0.00,,,-99.99,468.000000,,2013-05-16 17:51:00,
2013-05-16 14:01:00,-999.0,-99.9,-100.00,South,172,5.0,10.0,24,0.00,,,-99.99,468.000000,,2013-05-16 18:01:00,
2013-05-16 14:04:00,72.0,-99.9,-100.00,SSE,165,3.0,7.0,39,0.00,,,0.00,389.000000,,2013-05-16 18:04:00,
2013-05-16 14:41:00,-999.0,-99.9,-100.00,SSE,165,3.0,7.0,39,0.00,,,0.00,389.000000,,2013-05-16 18:41:00,
2013-05-16 14:50:00,-999.0,-99.9,-100.00,SSE,165,3.0,7.0,39,0.00,,,0.00,389.000000,,2013-05-16 18:50:00,
2013-05-16 15:00:00,-999.0,-99.9,-100.00,SSE,165,3.0,7.0,39,0.00,,,0.00,389.000000,,2013-05-16 19:00:00,
2013-05-16 15:04:00,-999.0,-99.9,-100.00,ENE,63,4.0,8.0,42,0.00,,,0.00,379.000000,,2013-05-16 19:04:00,
2013-05-16 15:40:00,75.0,-99.9,-100.00,ENE,63,4.0,8.0,42,0.00,,,0.00,379.000000,,2013-05-16 19:40:00,
2013-05-16 15:51:00,-999.0,-99.9,-100.00,ENE,63,4.0,8.0,42,0.00,,,0.00,379.000000,,2013-05-16 19:51:00,
2013-05-16 16:01:00,-999.0,-99.9,-100.00,ENE,63,4.0,8.0,42,0.00,,,0.00,379.000000,,2013-05-16 20:01:00,
2013-05-16 16:04:00,-999.0,-99.9,-100.00,SE,125,4.0,9.0,34,0.00,,,0.00,816.000000,,2013-05-16 20:04:00,
2013-05-16 16:41:00,-999.0,-99.9,-100.00,SE,125,4.0,9.0,34,0.00,,,0.00,816.000000,,2013-05-16 20:41:00,
2013-05-16 16:51:00,78.0,47.0,-100.00,SE,125,4.0,9.0,34,0.00,,,0.00,816.000000,,2013-05-16 20:51:00,
2013-05-16 17:00:00,78.0,-99.9,-100.00,SE,125,4.0,9.0,34,0.00,,,0.00,816.000000,,2013-05-16 21:00:00,
2013-05-16 17:04:00,77.0,45.0,-100.00,SSW,204,3.0,10.0,32,0.00,,,0.00,613.000000,,2013-05-16 21:04:00,
2013-05-16 18:00:00,-999.0,-99.9,-100.00,SSW,204,3.0,10.0,32,0.00,,,0.00,613.000000,,2013-05-16 22:00:00,
2013-05-16 18:04:00,73.0,48.0,-100.00,SSW,201,4.0,8.0,41,0.00,,,-99.99,225.000000,,2013-05-16 22:04:00,
2013-05-16 18:40:00,73.0,48.0,-100.00,SSW,201,4.0,8.0,41,0.00,,,-99.99,225.000000,,2013-05-16 22:40:00,
2013-05-16 18:51:00,73.0,48.0,-100.00,SSW,201,4.0,8.0,41,0.00,,,-99.99,225.000000,,2013-05-16 22:51:00,
2013-05-16 19:01:00,73.0,48.0,-100.00,SSW,201,4.0,8.0,41,0.00,,,-99.99,225.000000,,2013-05-16 23:01:00,
2013-05-16 19:35:00,72.0,52.0,-100.00,WSW,249,5.0,9.0,50,0.00,,,0.00,75.000000,,2013-05-16 23:35:00,
2013-05-16 19:45:00,72.0,52.0,-100.00,WSW,249,5.0,9.0,50,0.00,,,0.00,75.000000,,2013-05-16 23:45:00,
2013-05-16 19:54:00,72.0,52.0,-100.00,WSW,249,5.0,9.0,50,0.00,,,0.00,75.000000,,2013-05-16 23:54:00,
2013-05-16 20:03:00,72.0,52.0,-100.00,WSW,249,5.0,9.0,50,0.00,,,0.00,75.000000,,2013-05-17 00:03:00,
2013-05-16 20:33:00,67.0,52.0,-100.00,WSW,255,2.0,10.0,58,0.00,,,-99.99,25.000000,,2013-05-17 00:33:00,
2013-05-16 20:44:00,67.0,52.0,-100.00,WSW,255,2.0,10.0,58,0.00,,,-99.99,25.000000,,2013-05-17 00:44:00,
2013-05-16 20:53:00,67.0,52.0,-100.00,WSW,255,2.0,10.0,58,0.00,,,-99.99,25.000000,,2013-05-17 00:53:00,
2013-05-16 21:03:00,67.0,52.0,-100.00,WSW,255,2.0,10.0,58,0.00,,,-99.99,25.000000,,2013-05-17 01:03:00,
2013-05-16 21:32:00,61.0,53.0,-100.00,ENE,58,0.0,4.0,75,0.00,,,0.00,3.000000,,2013-05-17 01:32:00,
2013-05-16 21:44:00,61.0,53.0,-100.00,ENE,58,0.0,4.0,75,0.00,,,0.00,3.000000,,2013-05-17 01:44:00,
2013-05-16 21:53:00,61.0,53.0,-100.00,ENE,58,0.0,4.0,75,0.00,,,0.00,3.000000,,2013-05-17 01:53:00,
2013-05-16 22:02:00,61.0,53.0,-100.00,ENE,58,0.0,4.0,75,0.00,,,0.00,3.000000,,2013-05-17 02:02:00,
2013-05-16 22:22:00,58.0,53.0,-100.00,ENE,58,1.0,2.0,84,0.00,,,0.00,0.000000,,2013-05-17 02:22:00,
2013-05-16 22:33:00,58.0,53.0,-100.00,ENE,58,1.0,2.0,84,0.00,,,0.00,0.000000,,2013-05-17 02:33:00,
2013-05-16 22:42:00,58.0,53.0,-100.00,ENE,58,1.0,2.0,84,0.00,,,0.00,0.000000,,2013-05-17 02:42:00,
2013-05-16 22:53:00,58.0,53.0,-100.00,ENE,58,1.0,2.0,84,0.00,,,0.00,0.000000,,2013-05-17 02:53:00,
2013-05-16 23:02:00,58.0,53.0,-100.00,ENE,58,1.0,2.0,84,0.00,,,0.00,0.000000,,2013-05-17 03:02:00,
2013-05-16 23:34:00,55.0,52.0,-100.00,NNE,26,1.0,2.0,89,0.00,,,0.00,0.000000,,2013-05-17 03:34:00,
2013-05-16 23:43:00,55.0,52.0,-100.00,NNE,26,1.0,2.0,89,0.00,,,0.00,0.000000,,2013-05-17 03:43:00,
2013-05-16 23:53:00,55.0,52.0,-100.00,NNE,26,1.0,2.0,89,0.00,,,0.00,0.000000,,2013-05-17 03:53:00,